Tacoma Narrows, WA
on Wednesday, January 16, 2013

Wednesday
Previous Day Next Day
Daily Summary
 ActualAverageRecord
Temperature
Mean Temperature °F °F  
Max Temperature 41°F 44°F 55°F (2011)
Min Temperature 28°F 37°F 28°F (2013)
Degree Days
Heating Degree Days 30    
Moisture
Dew Point 30°F   
Average Humidity 90    
Maximum Humidity 100    
Minimum Humidity 73    
Precipitation
Precipitation 0.00 in in in ()
Wind
Wind Speed 1 mph   
Max Wind Speed 5 mph   
Max Gust Speed mph   
Visibility 3 miles   
Events Fog   
Averages and records for this station are not official NWS values.
Key: T is trace of precipitation, MM is missing value
Source: NWS Daily Summary
Seasonal Weather Averages
Time(PST)TemperatureDew PointHumidity Pressure Visibility Wind DirectionWind SpeedGust SpeedPrecipitationEvents Conditions
12:53 AM 33.1°F 30.0°F 89% 30.68 in 9.0 miles Calm Calm - N/A   Clear
1:21 AM 30.2°F 30.2°F 100% 30.66 in 1.8 miles Calm Calm - N/A   Clear
1:31 AM 32.0°F 28.4°F 87% 30.66 in 0.8 miles Calm Calm - N/A   Mist
1:35 AM 32.0°F 28.4°F 87% 30.66 in 1.0 miles Calm Calm - N/A   Clear
1:50 AM 32.0°F 30.2°F 93% 30.66 in 1.0 miles Calm Calm - N/A   Mist
1:53 AM 32.0°F 30.0°F 92% 30.68 in 1.0 miles Calm Calm - N/A   Mist
2:00 AM 32.0°F 30.2°F 93% 30.66 in 1.0 miles Calm Calm - N/A   Clear
2:10 AM 30.2°F 28.4°F 93% 30.66 in 0.8 miles Calm Calm - N/A   Mist
2:22 AM 30.2°F 28.4°F 93% 30.66 in 0.2 miles Calm Calm - N/A Fog Light Freezing Fog
2:53 AM 30.9°F 30.0°F 96% 30.68 in 0.2 miles Calm Calm - N/A Fog Light Freezing Fog
3:53 AM 28.9°F 27.0°F 92% 30.68 in 0.2 miles Calm Calm - N/A Fog Light Freezing Fog
4:10 AM 30.2°F 28.4°F 93% 30.66 in 0.5 miles Calm Calm - N/A Fog Light Freezing Fog
4:53 AM 28.9°F 28.0°F 96% 30.67 in 0.2 miles Calm Calm - N/A Fog Light Freezing Fog
5:11 AM 30.2°F 26.6°F 86% 30.65 in 0.5 miles Calm Calm - N/A Fog Light Freezing Fog
5:20 AM 30.2°F 28.4°F 93% 30.64 in 0.2 miles Calm Calm - N/A Fog Light Freezing Fog
5:53 AM 30.0°F 27.0°F 88% 30.66 in 0.8 miles Calm Calm - N/A   Mist
5:57 AM 30.2°F 26.6°F 86% 30.64 in 1.2 miles Calm Calm - N/A   Scattered Clouds
6:04 AM 30.2°F 28.4°F 93% 30.64 in 3.0 miles North 3.5 mph - N/A   Mostly Cloudy
6:17 AM 32.0°F 30.2°F 93% 30.63 in 2.0 miles North 3.5 mph - N/A   Mostly Cloudy
6:38 AM 30.2°F 28.4°F 93% 30.63 in 0.8 miles Calm Calm - N/A   Mostly Cloudy
6:48 AM 32.0°F 28.4°F 87% 30.63 in 2.5 miles Calm Calm - N/A   Mostly Cloudy
6:49 AM 32.0°F 28.4°F 87% 30.63 in 3.0 miles Calm Calm - N/A   Mostly Cloudy
6:53 AM 32.0°F 30.0°F 92% 30.65 in 4.0 miles Calm Calm - N/A   Scattered Clouds
6:59 AM 30.2°F 28.4°F 93% 30.63 in 1.8 miles Calm Calm - N/A   Scattered Clouds
7:02 AM 30.2°F 28.4°F 93% 30.63 in 0.8 miles Calm Calm - N/A   Mist
7:12 AM 28.4°F 28.4°F 100% 30.63 in 1.2 miles Calm Calm - N/A   Partly Cloudy
7:17 AM 28.4°F 26.6°F 93% 30.63 in 0.8 miles Calm Calm - N/A   Mist
7:36 AM 28.4°F 26.6°F 93% 30.63 in 0.2 miles Calm Calm - N/A Fog Light Freezing Fog
7:53 AM 28.9°F 27.0°F 92% 30.65 in 0.2 miles Calm Calm - N/A Fog Light Freezing Fog
8:53 AM 32.0°F 30.0°F 92% 30.65 in 0.2 miles Calm Calm - N/A Fog Fog
9:53 AM 30.9°F 30.0°F 96% 30.65 in 0.2 miles Calm Calm - N/A Fog Light Freezing Fog
10:53 AM 33.1°F 32.0°F 96% 30.64 in 0.2 miles Calm Calm - N/A Fog Fog
11:41 AM 33.8°F 33.8°F 100% 30.62 in 1.0 miles Calm Calm - N/A   Mist
11:53 AM 35.6°F 33.8°F 93% 30.62 in 1.5 miles Calm Calm - N/A   Overcast
12:27 PM 35.6°F 33.8°F 93% 30.60 in 3.0 miles Calm Calm - N/A   Mostly Cloudy
12:53 PM 36.0°F 33.1°F 89% 30.62 in 3.0 miles Calm Calm - N/A   Mostly Cloudy
1:00 PM 35.6°F 33.8°F 93% 30.60 in 9.0 miles Calm Calm - N/A   Mostly Cloudy
1:53 PM 39.0°F 33.1°F 79% 30.59 in 10.0 miles North 4.6 mph - N/A   Scattered Clouds
2:53 PM 39.9°F 33.1°F 77% 30.58 in 10.0 miles NNE 3.5 mph - N/A   Partly Cloudy
3:53 PM 41.0°F 33.1°F 73% 30.58 in 10.0 miles NNE 4.6 mph - N/A   Clear
4:53 PM 37.9°F 32.0°F 79% 30.57 in 10.0 miles North 3.5 mph - N/A   Clear
5:53 PM 36.0°F 32.0°F 86% 30.56 in 10.0 miles North 3.5 mph - N/A   Clear
6:53 PM 37.9°F 32.0°F 79% 30.56 in 10.0 miles North 3.5 mph - N/A   Clear
7:53 PM 36.0°F 32.0°F 86% 30.56 in 10.0 miles North 3.5 mph - N/A   Clear
8:53 PM 35.1°F 30.9°F 85% 30.55 in 10.0 miles NNW 3.5 mph - N/A   Clear
9:53 PM 32.0°F 28.9°F 88% 30.54 in 7.0 miles West 3.5 mph - N/A   Clear
10:53 PM 34.0°F 30.0°F 85% 30.53 in 10.0 miles North 3.5 mph - N/A   Clear
11:44 PM 32.0°F 30.2°F 93% 30.51 in 1.5 miles Calm Calm - N/A   Clear
11:46 PM 30.2°F 30.2°F 100% 30.51 in 0.8 miles Calm Calm - N/A   Mist
11:53 PM 30.9°F 28.9°F 92% 30.53 in 0.2 miles Calm Calm - N/A Fog Light Freezing Fog
Moon Phase
Jan. 16 Jan. 18 Jan. 26 Feb. 03 Feb. 10
Sunrise:07:51 AM (PST) Moon Rise:10:04 AM (PST)1/16
Sunset:04:49 PM (PST) Moon Set:11:14 PM (PST)1/16

Copyright © 2014 The Weather Underground, Inc.